Time,TemperatureF,DewpointF,PressureIn,WindDirection,WindDirectionDegrees,WindSpeedMPH,WindSpeedGustMPH,Humidity,HourlyPrecipIn,Conditions,Clouds,dailyrainin,SoftwareType,DateUTC
2013-06-22 10:02:00,84.0,74.0,30.02,SW,218,11.0,15.0,72,0.00,,,0.00,,2013-06-22 15:02:00,
2013-06-22 10:12:00,84.0,74.0,30.02,SW,218,11.0,15.0,72,0.00,,,0.00,,2013-06-22 15:12:00,
2013-06-22 10:22:00,84.0,74.0,30.02,SW,236,10.0,18.0,71,0.00,,,0.00,,2013-06-22 15:22:00,
2013-06-22 10:34:00,84.0,74.0,30.03,SSW,209,9.0,15.0,71,0.00,,,0.00,,2013-06-22 15:34:00,
2013-06-22 10:43:00,84.0,74.0,30.03,SSW,209,9.0,15.0,71,0.00,,,0.00,,2013-06-22 15:43:00,
2013-06-22 10:53:00,85.0,74.0,30.02,SW,218,13.0,19.0,70,0.00,,,0.00,,2013-06-22 15:53:00,
2013-06-22 11:02:00,85.0,74.0,30.02,SW,234,11.0,18.0,69,0.00,,,0.00,,2013-06-22 16:02:00,
2013-06-22 11:12:00,85.0,74.0,30.02,SW,234,11.0,18.0,69,0.00,,,0.00,,2013-06-22 16:12:00,
2013-06-22 11:22:00,86.0,74.0,30.02,SW,223,7.0,20.0,67,0.00,,,0.00,,2013-06-22 16:22:00,
2013-06-22 11:34:00,85.0,74.0,30.02,SSW,205,9.0,16.0,69,0.00,,,0.00,,2013-06-22 16:34:00,
2013-06-22 11:43:00,85.0,74.0,30.02,SSW,205,9.0,16.0,69,0.00,,,0.00,,2013-06-22 16:43:00,
2013-06-22 11:52:00,87.0,74.0,30.01,SW,232,10.0,19.0,66,0.00,,,0.00,,2013-06-22 16:52:00,
2013-06-22 12:02:00,86.0,73.0,30.01,SW,223,9.0,14.0,66,0.00,,,0.00,,2013-06-22 17:02:00,
2013-06-22 12:11:00,86.0,73.0,30.01,SW,223,9.0,14.0,66,0.00,,,0.00,,2013-06-22 17:11:00,
2013-06-22 12:22:00,86.0,73.0,30.01,SW,223,9.0,14.0,66,0.00,,,0.00,,2013-06-22 17:22:00,
2013-06-22 12:34:00,86.0,73.0,30.01,SW,223,9.0,14.0,66,0.00,,,0.00,,2013-06-22 17:34:00,
2013-06-22 12:43:00,86.0,73.0,30.01,SW,223,9.0,14.0,66,0.00,,,0.00,,2013-06-22 17:43:00,
2013-06-22 12:52:00,88.0,74.0,30.01,SSW,205,12.0,18.0,64,0.00,,,0.00,,2013-06-22 17:52:00,
2013-06-22 13:02:00,88.0,74.0,30.02,WSW,238,9.0,16.0,64,0.00,,,0.00,,2013-06-22 18:02:00,
2013-06-22 13:12:00,88.0,74.0,30.02,WSW,238,9.0,16.0,64,0.00,,,0.00,,2013-06-22 18:12:00,
2013-06-22 13:23:00,89.0,75.0,30.02,SW,223,10.0,15.0,63,0.00,,,0.00,,2013-06-22 18:23:00,
2013-06-22 13:34:00,89.0,74.0,30.02,SW,236,6.0,15.0,62,0.00,,,0.00,,2013-06-22 18:34:00,
2013-06-22 13:43:00,89.0,74.0,30.02,SW,236,6.0,15.0,62,0.00,,,0.00,,2013-06-22 18:43:00,
2013-06-22 13:52:00,90.0,74.0,30.01,SSW,203,12.0,16.0,59,0.00,,,0.00,,2013-06-22 18:52:00,
2013-06-22 14:01:00,90.0,74.0,30.01,SSW,203,12.0,16.0,59,0.00,,,0.00,,2013-06-22 19:01:00,
2013-06-22 14:11:00,90.0,74.0,30.01,SSW,203,12.0,16.0,59,0.00,,,0.00,,2013-06-22 19:11:00,
2013-06-22 14:22:00,90.0,75.0,30.01,WSW,249,10.0,13.0,61,0.00,,,0.00,,2013-06-22 19:22:00,
2013-06-22 14:33:00,90.0,75.0,29.99,SW,232,8.0,14.0,61,0.00,,,0.00,,2013-06-22 19:33:00,
2013-06-22 14:43:00,90.0,75.0,29.99,SW,232,8.0,14.0,61,0.00,,,0.00,,2013-06-22 19:43:00,
2013-06-22 14:53:00,90.0,74.0,29.99,SW,235,8.0,12.0,59,0.00,,,0.00,,2013-06-22 19:53:00,
2013-06-22 15:02:00,89.0,74.0,29.98,SW,218,7.0,13.0,61,0.00,,,0.00,,2013-06-22 20:02:00,
2013-06-22 15:11:00,89.0,74.0,29.98,SW,218,7.0,13.0,61,0.00,,,0.00,,2013-06-22 20:11:00,
2013-06-22 15:22:00,90.0,74.0,29.97,SW,228,3.0,13.0,59,0.00,,,0.00,,2013-06-22 20:22:00,
2013-06-22 15:33:00,90.0,73.0,29.96,SW,228,9.0,15.0,57,0.00,,,0.00,,2013-06-22 20:33:00,
2013-06-22 15:43:00,90.0,73.0,29.96,SW,228,9.0,15.0,57,0.00,,,0.00,,2013-06-22 20:43:00,
2013-06-22 15:53:00,90.0,73.0,29.96,SW,228,9.0,15.0,57,0.00,,,0.00,,2013-06-22 20:53:00,
2013-06-22 16:01:00,91.0,72.0,29.94,SW,223,10.0,15.0,54,0.00,,,0.00,,2013-06-22 21:01:00,
2013-06-22 16:11:00,91.0,72.0,29.94,SW,223,10.0,15.0,54,0.00,,,0.00,,2013-06-22 21:11:00,
2013-06-22 16:22:00,90.0,73.0,29.94,SW,228,9.0,14.0,57,0.00,,,0.00,,2013-06-22 21:22:00,
2013-06-22 16:34:00,90.0,74.0,29.93,SW,233,7.0,12.0,59,0.00,,,0.00,,2013-06-22 21:34:00,
2013-06-22 16:43:00,90.0,74.0,29.93,SW,233,7.0,12.0,59,0.00,,,0.00,,2013-06-22 21:43:00,
2013-06-22 16:53:00,90.0,74.0,29.92,SW,223,8.0,14.0,60,0.00,,,0.00,,2013-06-22 21:53:00,
2013-06-22 17:02:00,90.0,73.0,29.92,SW,228,8.0,11.0,57,0.00,,,0.00,,2013-06-22 22:02:00,
2013-06-22 17:12:00,90.0,73.0,29.92,SW,228,8.0,11.0,57,0.00,,,0.00,,2013-06-22 22:12:00,
2013-06-22 17:23:00,89.0,73.0,29.92,WSW,238,5.0,11.0,60,0.00,,,0.00,,2013-06-22 22:23:00,
2013-06-22 17:33:00,89.0,74.0,29.92,SW,228,5.0,11.0,61,0.00,,,0.00,,2013-06-22 22:33:00,
2013-06-22 17:43:00,89.0,73.0,29.92,SW,218,7.0,11.0,60,0.00,,,0.00,,2013-06-22 22:43:00,
2013-06-22 17:52:00,89.0,73.0,29.92,SW,218,7.0,11.0,60,0.00,,,0.00,,2013-06-22 22:52:00,
2013-06-22 18:01:00,89.0,73.0,29.91,SSW,206,8.0,12.0,59,0.00,,,0.00,,2013-06-22 23:01:00,
2013-06-22 18:11:00,89.0,73.0,29.91,SSW,206,8.0,12.0,59,0.00,,,0.00,,2013-06-22 23:11:00,
2013-06-22 18:22:00,89.0,73.0,29.92,SSW,213,5.0,12.0,60,0.00,,,0.00,,2013-06-22 23:22:00,
2013-06-22 18:34:00,89.0,75.0,29.92,SSW,209,3.0,10.0,63,0.00,,,0.00,,2013-06-22 23:34:00,
2013-06-22 18:43:00,89.0,75.0,29.92,SSW,209,3.0,10.0,63,0.00,,,0.00,,2013-06-22 23:43:00,
2013-06-22 18:52:00,89.0,75.0,29.92,SSW,209,3.0,10.0,63,0.00,,,0.00,,2013-06-22 23:52:00,
2013-06-22 19:01:00,87.0,75.0,29.91,SSW,197,6.0,8.0,68,0.00,,,0.00,,2013-06-23 00:01:00,
2013-06-22 19:11:00,87.0,75.0,29.91,SSW,197,6.0,8.0,68,0.00,,,0.00,,2013-06-23 00:11:00,
2013-06-22 19:22:00,86.0,75.0,29.91,SSW,200,5.0,8.0,70,0.00,,,0.00,,2013-06-23 00:22:00,
2013-06-22 19:33:00,86.0,76.0,29.91,SSW,200,5.0,7.0,72,0.00,,,0.00,,2013-06-23 00:33:00,
2013-06-22 19:42:00,86.0,76.0,29.91,SSW,200,5.0,7.0,72,0.00,,,0.00,,2013-06-23 00:42:00,
2013-06-22 19:53:00,85.0,76.0,29.90,SSW,200,4.0,7.0,74,0.00,,,0.00,,2013-06-23 00:53:00,
2013-06-22 20:01:00,85.0,76.0,29.90,SSW,200,4.0,7.0,74,0.00,,,0.00,,2013-06-23 01:01:00,
2013-06-22 20:11:00,85.0,76.0,29.90,SSW,200,4.0,7.0,74,0.00,,,0.00,,2013-06-23 01:11:00,
2013-06-22 20:22:00,85.0,76.0,29.90,SSW,200,4.0,7.0,74,0.00,,,0.00,,2013-06-23 01:22:00,
2013-06-22 20:32:00,82.0,74.0,29.90,SSW,192,5.0,7.0,76,0.00,,,0.00,,2013-06-23 01:32:00,
2013-06-22 20:42:00,82.0,74.0,29.90,SSW,192,5.0,7.0,76,0.00,,,0.00,,2013-06-23 01:42:00,
2013-06-22 20:52:00,82.0,74.0,29.90,SSW,192,5.0,7.0,76,0.00,,,0.00,,2013-06-23 01:52:00,
2013-06-22 21:01:00,82.0,74.0,29.90,SSW,192,5.0,7.0,76,0.00,,,0.00,,2013-06-23 02:01:00,
2013-06-22 21:11:00,82.0,74.0,29.90,SSW,192,5.0,7.0,76,0.00,,,0.00,,2013-06-23 02:11:00,
2013-06-22 21:20:00,81.0,74.0,29.89,South,184,8.0,10.0,79,0.00,,,0.00,,2013-06-23 02:20:00,
2013-06-22 21:41:00,81.0,74.0,29.89,South,184,8.0,10.0,79,0.00,,,0.00,,2013-06-23 02:41:00,
2013-06-22 21:52:00,81.0,74.0,29.89,South,184,8.0,10.0,79,0.00,,,0.00,,2013-06-23 02:52:00,
2013-06-22 22:01:00,81.0,74.0,29.89,South,184,8.0,10.0,79,0.00,,,0.00,,2013-06-23 03:01:00,
2013-06-22 22:11:00,81.0,74.0,29.89,South,184,8.0,10.0,79,0.00,,,0.00,,2013-06-23 03:11:00,